• MPC Preparation (Info)

  • MPEC 2023-H105 : 2023 FW14

    The following Minor Planet Electronic Circular may be linked-to from your own Web pages, but must not otherwise be redistributed electronically.

    A form allowing access to any MPEC is at the bottom of this page.


    Read MPEC 2023-H104 Read MPEC 2023-H106


    M.P.E.C. 2023-H105                               Issued 2023 April 19, 14:06 UT
    
         The Minor Planet Electronic Circulars contain information on unusual
             minor planets, routine data on comets and natural satellites,
             and occasional editorial announcements.  They are published
        on behalf of Division F of the International Astronomical Union by the
              Minor Planet Center, Smithsonian Astrophysical Observatory,
                              Cambridge, MA 02138, U.S.A.
    			  
                 Prepared using the Tamkin Foundation Computer Network
    
                                  MPC@CFA.HARVARD.EDU
                URL https://www.minorplanetcenter.net/    ISSN 1523-6714
    
                                    2023 FW14                                
    
    
                               Revision to MPEC 2023-G87                            
    
    Additional Observations:
         K23F14W  C2008 03 28.38946 14 38 37.80 -12 44 17.1          21.0 GVEH105G96
         K23F14W  C2008 03 28.39670 14 38 37.44 -12 44 27.1          22.1 GVEH105G96
         K23F14W  C2008 03 28.40400 14 38 37.22 -12 44 38.1          21.4 GVEH105G96
         K23F14W  C2012 10 08.42327101 38 00.851+08 20 48.66         21.58GVEH105F51
         K23F14W  C2012 10 08.43537301 37 59.291+08 20 54.01         21.60GVEH105F51
         K23F14W  C2012 10 08.50067701 37 50.847+08 21 22.26         22.77GVEH105F51
         K23F14W  C2012 10 08.51379301 37 49.181+08 21 28.06         21.67GVEH105F51
         K23F14W  C2012 10 11.49242501 31 40.179+08 42 44.62         20.88GVEH105F51
         K23F14W  C2012 11 03.41242400 50 38.105+10 59 50.35         22.09GVEH105F51
         K23F14W  C2012 11 03.42443700 50 37.116+10 59 54.46         22.89GVEH105F51
         K23F14W  C2012 11 04.29243800 49 32.261+11 04 33.37         22.18GVEH105F51
         K23F14W KC2018 12 17.53256608 41 47.731+45 20 55.06         23.87GVEH105F51
         K23F14W  C2019 01 12.33674808 01 08.276+50 38 49.91         22.71GVEH105F51
         K23F14W  C2019 01 12.35206508 01 06.047+50 38 56.23         22.75GVEH105F51
         K23F14W  C2019 01 12.36749508 01 03.874+50 39 02.79         23.48GVEH105F51
         K23F14W  C2019 01 12.38296008 01 01.618+50 39 09.09         23.58GVEH105F51
         K23F14W KC2019 01 13.39154907 58 40.338+50 45 18.36         22.73GVEH105F51
         K23F14W  C2021 02 12.53068110 32 23.479+39 05 05.13         22.45GVEH105F51
         K23F14W  C2021 02 16.39379810 24 33.833+39 22 52.44         22.28GVEH105F51
         K23F14W  C2021 02 16.39766310 24 33.309+39 22 53.02         23.48GVEH105F51
         K23F14W  C2021 02 16.40433210 24 32.430+39 22 55.12         22.69GVEH105F51
         K23F14W  C2021 02 16.41486210 24 31.059+39 22 56.87         23.15GVEH105F51
         K23F14W  C2021 02 16.42931610 24 29.160+39 22 59.94         23.05GVEH105F51
    
    Observer details:
    F51 Pan-STARRS 1, Haleakala.  Observers J. Bulger, K. Chambers, T. Lowe, A.
        Schultz, I. Smith.  Measurers S. Chastel, J. Fairlamb, M. Huber, Y.
        Ramanjooloo, R. Wainscoat, R. Weryk.  1.8-m Ritchey-Chretien + CCD.
    G96 Mt. Lemmon Survey.  Observer R. A. Kowalski.  Measurers B. Gray, D.
        Rankin, F. C. Shelly.  1.5-m reflector + CCD.
    
    Orbital elements:
    2023 FW14                                                Earth MOID = 0.3325 AU
    Epoch 2023 Feb. 25.0 TT = JDT 2460000.5                 Veres                   
    M 281.23949              (2000.0)            P               Q                  
    n   0.52398453     Peri.  245.29293     -0.05890130     +0.99460047             
    a   1.5237852      Node    21.84854     -0.81270924     +0.00192561             
    e   0.1581321      Incl.   13.27297     -0.57968468     -0.10376024             
    P   1.88           H   21.63          G   0.15           U   0                  
    Residuals in seconds of arc
    080328 G96  0.1+  0.1+    190112 F51  0.3+  0.1-    230414 F52  0.2+  0.2+
    080328 G96  1.0-  0.1-    190113 F51  0.0   0.4-    230414 F52  0.3+  0.3+
    080328 G96  0.1-  1.3-    210212 F51  0.2+  0.2-    230414 F52  0.1+  0.1+
    121008 F51  0.2+  0.1-    210216 F51  0.0   0.1+    230414 F52  0.1+  0.3+
    121008 F51  0.2+  0.1-    210216 F51  0.2-  0.1-    230415 I52  0.0   0.8+
    121008 F51  0.1-  0.4-    210216 F51  0.2-  0.5+    230415 I52  0.2+  0.0
    121008 F51  0.2+  0.3-    210216 F51  0.0   0.0     230415 I52  0.5-  0.1+
    121011 F51  0.0   0.3-    210216 F51  0.0   0.1-    230416 Y66  0.6+  0.6+
    121103 F51  0.2+  0.1-    230318 F52  0.1+  0.1+    230416 Y66  0.3+  0.6+
    121103 F51  0.1+  0.2+    230318 F52  0.1+  0.1+    230416 Y66  0.2+  0.3+
    121104 F51  0.0   0.1-    230318 F52  0.0   0.2+    230417 G96  0.4+  0.2-
    181217 F51  0.1-  0.2-    230318 F52  0.0   0.1+    230417 G96  0.1-  0.1+
    190112 F51  0.0   0.1-    230325 F51  0.0   0.2+    230417 G96  0.6-  0.6+
    190112 F51  0.2-  0.2-    230325 F51  0.3+  0.2+    230417 G96  0.1+  0.4-
    190112 F51  0.4+  0.1-    230325 F51  0.2+  0.3+
    
    Ephemeris:
    2023 FW14                a,e,i = 1.52, 0.16, 13                  q = 1.2828
    Date    TT    R. A. (2000) Decl.     Delta      r    Elong.  Phase     V
    2023 03 20    13 05 56.9 +07 13 37   0.4853  1.4634   161.2    12.7    21.6
    ...
    2023 04 04    12 37 13.5 +04 37 49   0.4357  1.4304   169.5     7.3    21.1
    ...
    2023 04 12    12 20 06.5 +02 37 55   0.4267  1.4133   161.5    13.0    21.3
    ...
    2023 04 18    12 08 04.7 +00 54 00   0.4275  1.4008   154.1    18.3    21.5
    2023 04 19    12 06 12.5 +00 35 45   0.4282  1.3987   152.8    19.2    21.5
    2023 04 20    12 04 23.3 +00 17 16   0.4291  1.3967   151.5    20.0    21.5
    ...
    2023 04 26    11 54 37.3 -01 37 36   0.4375  1.3846   144.2    25.2    21.7
    ...
    2023 05 04    11 45 11.0 -04 17 43   0.4558  1.3692   135.1    31.3    21.9
    ...
    2023 05 19    11 39 09.3 -09 23 35   0.5047  1.3426   120.9    40.3    22.4
    
    A. U. Tomatic                (C) Copyright 2023 MPC           M.P.E.C. 2023-H105
    


    Read MPEC 2023-H104 Read MPEC 2023-H106


    MPEC number:

    Enter an MPEC number in one of the following forms:

    • 1997-B01 (the full form)
    • J97B01 (the packed version of the full form)
    • B01 (the abbreviated form)